When you browse on this site, cookies collect data to enhance your experience and personalize the content and advertising you see.
Visit our Privacy Policy to learn more. By continuing to use the site, you agree to this use of cookies and data.

Hourly Weather Sherpur

Today, 7 August, Friday

Time Temperature Precipitation Wind Pressure Humidity
00:00 +26°C° 0 mm 1 mps 610 mmHg 33%
01:00 +26°C° 0 mm 1 mps 610 mmHg 34%
02:00 +23°C° 0 mm 0 mps 610 mmHg 35%
03:00 +22°C° 0 mm 0 mps 610 mmHg 36%
04:00 +22°C° 0 mm 0 mps 609 mmHg 37%
05:00 +21°C° 0 mm 0 mps 609 mmHg 38%
06:00 +23°C° 0 mm 0 mps 610 mmHg 34%
07:00 +24°C° 0 mm 0 mps 611 mmHg 31%
08:00 +26°C° 0 mm 0 mps 612 mmHg 27%
09:00 +29°C° 0 mm 1 mps 612 mmHg 27%
10:00 +30°C° 0 mm 1 mps 612 mmHg 27%
11:00 +32°C° 0 mm 2 mps 612 mmHg 26%
12:00 +34°C° 0 mm 2 mps 612 mmHg 25%
13:00 +35°C° 0 mm 3 mps 612 mmHg 23%
14:00 +36°C° 0 mm 3 mps 612 mmHg 21%
15:00 +36°C° 0 mm 3 mps 612 mmHg 21%
16:00 +36°C° 0 mm 3 mps 612 mmHg 20%
17:00 +36°C° 0 mm 4 mps 611 mmHg 20%
18:00 +35°C° 0 mm 3 mps 611 mmHg 23%
19:00 +33°C° 0 mm 3 mps 611 mmHg 26%
20:00 +31°C° 0 mm 2 mps 611 mmHg 28%
21:00 +30°C° 0 mm 2 mps 610 mmHg 29%
22:00 +29°C° 0 mm 2 mps 610 mmHg 30%
23:00 +28°C° 0 mm 2 mps 610 mmHg 31%

Tomorrow, 8 August, Saturday

Time Temperature Precipitation Wind Pressure Humidity
00:00 +27°C° 0 mm 1 mps 610 mmHg 32%
01:00 +26°C° 0 mm 1 mps 609 mmHg 32%
02:00 +25°C° 0 mm 1 mps 609 mmHg 33%
03:00 +25°C° 0 mm 1 mps 609 mmHg 34%
04:00 +24°C° 0 mm 1 mps 608 mmHg 35%
05:00 +21°C° 0 mm 0 mps 608 mmHg 36%
06:00 +25°C° 0 mm 1 mps 608 mmHg 33%
07:00 +26°C° 0 mm 1 mps 609 mmHg 30%
08:00 +27°C° 0 mm 1 mps 610 mmHg 27%
09:00 +29°C° 0 mm 1 mps 610 mmHg 24%
10:00 +30°C° 0 mm 1 mps 610 mmHg 21%
11:00 +32°C° 0 mm 2 mps 611 mmHg 18%
12:00 +34°C° 0 mm 2 mps 611 mmHg 17%
13:00 +35°C° 0 mm 2 mps 610 mmHg 15%
14:00 +36°C° 0 mm 2 mps 610 mmHg 14%
15:00 +36°C° 0 mm 3 mps 610 mmHg 14%
16:00 +36°C° 0 mm 3 mps 610 mmHg 14%
17:00 +36°C° 0 mm 4 mps 610 mmHg 14%
18:00 +35°C° 0 mm 3 mps 609 mmHg 17%
19:00 +33°C° 0 mm 3 mps 609 mmHg 20%
20:00 +31°C° 0 mm 3 mps 609 mmHg 23%
21:00 +29°C° 0.1 mm 2 mps 609 mmHg 25%
22:00 +28°C° 0.1 mm 2 mps 608 mmHg 26%
23:00 +27°C° 0.1 mm 1 mps 608 mmHg 28%

Day after tomorrow, 9 August, Sunday

Time Temperature Precipitation Wind Pressure Humidity
00:00 +27°C° 0 mm 1 mps 608 mmHg 29%
01:00 +24°C° 0 mm 0 mps 607 mmHg 30%
02:00 +23°C° 0 mm 0 mps 607 mmHg 31%
03:00 +23°C° 0 mm 0 mps 607 mmHg 32%
04:00 +22°C° 0 mm 0 mps 607 mmHg 33%
05:00 +22°C° 0 mm 0 mps 606 mmHg 34%
06:00 +23°C° 0 mm 0 mps 607 mmHg 31%
07:00 +26°C° 0 mm 1 mps 608 mmHg 27%
08:00 +27°C° 0 mm 1 mps 608 mmHg 24%
09:00 +29°C° 0 mm 1 mps 609 mmHg 23%
10:00 +30°C° 0 mm 1 mps 609 mmHg 21%
11:00 +31°C° 0 mm 2 mps 609 mmHg 20%
12:00 +32°C° 0 mm 2 mps 609 mmHg 19%
13:00 +34°C° 0 mm 2 mps 609 mmHg 19%
14:00 +35°C° 0 mm 2 mps 609 mmHg 18%
15:00 +36°C° 0 mm 2 mps 609 mmHg 19%
16:00 +36°C° 0 mm 3 mps 609 mmHg 20%
17:00 +36°C° 0 mm 3 mps 608 mmHg 22%
18:00 +34°C° 0 mm 3 mps 608 mmHg 24%
19:00 +32°C° 0 mm 2 mps 608 mmHg 27%
20:00 +31°C° 0 mm 2 mps 608 mmHg 30%
21:00 +30°C° 0.1 mm 2 mps 608 mmHg 31%
22:00 +29°C° 0.1 mm 2 mps 608 mmHg 32%
23:00 +27°C° 0.1 mm 1 mps 608 mmHg 33%

10 August, Monday

Time Temperature Precipitation Wind Pressure Humidity
00:00 +27°C° 0 mm 1 mps 607 mmHg 34%
01:00 +26°C° 0 mm 1 mps 607 mmHg 34%
02:00 +26°C° 0 mm 1 mps 607 mmHg 34%
03:00 +23°C° 0 mm 0 mps 606 mmHg 36%
04:00 +22°C° 0 mm 0 mps 606 mmHg 37%
05:00 +22°C° 0 mm 0 mps 606 mmHg 38%
06:00 +23°C° 0 mm 0 mps 607 mmHg 35%
07:00 +24°C° 0 mm 0 mps 607 mmHg 32%
08:00 +26°C° 0 mm 0 mps 608 mmHg 29%
09:00 +29°C° 0 mm 1 mps 608 mmHg 27%
10:00 +31°C° 0 mm 1 mps 609 mmHg 25%
11:00 +32°C° 0 mm 2 mps 609 mmHg 23%
12:00 +34°C° 0 mm 2 mps 609 mmHg 21%
13:00 +35°C° 0 mm 3 mps 609 mmHg 20%
14:00 +36°C° 0 mm 3 mps 609 mmHg 18%
15:00 +36°C° 0 mm 4 mps 609 mmHg 18%
16:00 +36°C° 0 mm 5 mps 609 mmHg 18%
17:00 +36°C° 0 mm 6 mps 609 mmHg 18%
18:00 +35°C° 0 mm 5 mps 609 mmHg 21%
19:00 +33°C° 0 mm 4 mps 608 mmHg 24%
20:00 +30°C° 0 mm 4 mps 608 mmHg 27%
21:00 +29°C° 0.1 mm 3 mps 608 mmHg 28%
22:00 +28°C° 0.1 mm 2 mps 608 mmHg 28%
23:00 +27°C° 0.1 mm 2 mps 608 mmHg 29%

11 August, Tuesday

Time Temperature Precipitation Wind Pressure Humidity
00:00 +26°C° 0 mm 1 mps 608 mmHg 30%
01:00 +26°C° 0 mm 1 mps 607 mmHg 31%
02:00 +25°C° 0 mm 1 mps 607 mmHg 31%
03:00 +24°C° 0 mm 1 mps 607 mmHg 33%
04:00 +24°C° 0 mm 1 mps 607 mmHg 35%
05:00 +23°C° 0 mm 1 mps 606 mmHg 38%
06:00 +24°C° 0 mm 1 mps 607 mmHg 34%
07:00 +26°C° 0 mm 1 mps 608 mmHg 31%
08:00 +27°C° 0 mm 1 mps 609 mmHg 28%
09:00 +28°C° 0 mm 1 mps 609 mmHg 25%
10:00 +30°C° 0 mm 1 mps 609 mmHg 22%
11:00 +31°C° 0 mm 1 mps 610 mmHg 19%
12:00 +32°C° 0 mm 2 mps 610 mmHg 18%
13:00 +35°C° 0 mm 2 mps 610 mmHg 16%
14:00 +36°C° 0 mm 3 mps 610 mmHg 15%
15:00 +36°C° 0 mm 4 mps 610 mmHg 14%
16:00 +36°C° 0 mm 5 mps 609 mmHg 13%
17:00 +36°C° 0 mm 6 mps 609 mmHg 13%
18:00 +34°C° 0 mm 5 mps 609 mmHg 15%
19:00 +32°C° 0 mm 4 mps 609 mmHg 17%
20:00 +29°C° 0 mm 4 mps 608 mmHg 20%
21:00 +28°C° 0 mm 3 mps 608 mmHg 21%
22:00 +27°C° 0 mm 2 mps 608 mmHg 23%
23:00 +26°C° 0 mm 2 mps 608 mmHg 24%

12 August, Wednesday

Time Temperature Precipitation Wind Pressure Humidity
00:00 +25°C° 0 mm 1 mps 608 mmHg 25%
01:00 +24°C° 0 mm 1 mps 607 mmHg 26%
02:00 +23°C° 0 mm 1 mps 607 mmHg 27%
03:00 +22°C° 0 mm 1 mps 607 mmHg 28%
04:00 +22°C° 0 mm 1 mps 607 mmHg 28%
05:00 +21°C° 0 mm 1 mps 607 mmHg 28%
06:00 +23°C° 0 mm 1 mps 607 mmHg 25%
07:00 +24°C° 0 mm 1 mps 608 mmHg 22%
08:00 +26°C° 0 mm 1 mps 609 mmHg 19%
09:00 +27°C° 0 mm 1 mps 609 mmHg 17%
10:00 +29°C° 0 mm 1 mps 610 mmHg 14%
11:00 +31°C° 0 mm 1 mps 610 mmHg 11%
12:00 +32°C° 0 mm 2 mps 610 mmHg 10%
13:00 +35°C° 0 mm 2 mps 610 mmHg 9%
14:00 +36°C° 0 mm 3 mps 610 mmHg 7%
15:00 +36°C° 0 mm 3 mps 610 mmHg 7%
16:00 +36°C° 0 mm 4 mps 610 mmHg 7%
17:00 +36°C° 0 mm 5 mps 610 mmHg 7%
18:00 +34°C° 0 mm 4 mps 610 mmHg 10%
19:00 +30°C° 0 mm 3 mps 609 mmHg 12%
20:00 +28°C° 0 mm 2 mps 609 mmHg 14%
21:00 +27°C° 0 mm 2 mps 609 mmHg 16%
22:00 +26°C° 0 mm 2 mps 609 mmHg 17%
23:00 +25°C° 0 mm 2 mps 609 mmHg 19%
Show more